Location: Joplin
(37.0842°N, 94.5131°W)
Time: 03:07:08
(UTC-05:00)

Envisat - Pass Details

Date: 04 October 2021
Orbit: 764 x 766 km, 98.2° (Epoch: 25 October)

Event Time Altitude Azimuth Distance (km) Brightness Sun altitude
Rises 05:06:21 0° 35° (NE) 3,234 7.0 -26.5°
Reaches altitude 10° 05:09:52 10° 61° (ENE) 2,302 6.4 -25.8°
Maximum altitude 05:12:25 14° 91° (E) 2,042 6.1 -25.3°
Drops below altitude 10° 05:14:57 10° 122° (ESE) 2,294 6.0 -24.8°
Sets 05:18:26 0° 147° (SSE) 3,214 6.5 -24.2°
